[[{"header":{"parameterUnit":"m.s-1","parameterCategory":1,"la1":30.2991,"la2":30.254,"lo1":-89.0895,"lo2":-89.0444,"dy":0.0017,"dx":0.0017,"nx":28,"ny":28,"refTime":"2025-11-16T03:00:00:Z","depth":0,"parameterNumber":2,"parameterNumberName":"U-component_of_WINDS"},"data":[0,0,0,0,0,0,0,0,0,0,0,0,0,0,0,0,0,0,0,0,0,0,0,0,0,0,0,0,0,0,0,0,0,0,0,0,0,0,0,0,0,0,0,0,0,0,0,0,0,0,0,0,0,0,0,0,0,0,2.3818,2.3818,0,2.3883,2.3883,2.3884,2.3837,2.3834,2.3832,2.383,2.3898,2.3902,2.3906,0,0,0,0,0,0,0,0,0,0,0,0,0,2.3654,2.3658,2.3818,2.3819,2.3819,2.3883,2.3883,2.3884,2.3837,2.3834,2.3832,2.3829,2.3897,2.3901,2.3906,0,0,0,0,0,0,0,0,0,0,0,0,0,2.3723,2.3659,2.3818,2.3803,2.3803,2.3882,2.3884,2.3885,2.3838,2.3834,2.3831,2.3828,2.3895,2.3901,2.3907,2.4004,0,0,2.3924,2.3926,0,0,0,0,0,0,0,0,2.3719,2.3729,2.3805,2.3804,2.3804,2.3848,2.3851,2.3925,2.3838,2.3824,2.383,2.3827,2.3884,2.3891,2.391,2.4007,2.401,2.3924,2.3928,2.393,2.3932,0,0,0,0,0,0,0,2.3715,2.3726,2.3843,2.3806,2.3805,2.3794,2.3801,2.3865,2.3871,2.3825,2.3822,2.383,2.3883,2.3904,2.3911,2.4011,2.3924,2.3929,2.3933,2.3935,2.4193,2.4197,0,0,0,0,0,0,2.3711,2.3722,2.3841,2.3845,2.3753,2.38,2.3807,2.3837,2.387,2.3872,2.3833,2.3828,2.3896,2.3904,2.3913,2.403,2.393,2.3935,2.3939,2.419,2.4194,2.4198,0,0,0,0,0,0,2.3708,2.3722,2.3839,2.3783,2.3797,2.3806,2.3841,2.384,2.3861,2.3876,2.3877,2.3853,2.3894,2.3905,2.3982,2.4031,2.3938,2.3943,2.4186,2.4191,2.4196,2.4264,0,0,0,0,0,0,2.3703,2.3721,2.3758,2.3784,2.38,2.3906,2.3844,2.3844,2.3871,2.3865,2.3895,2.3897,2.3893,2.3974,2.3988,2.4037,2.3947,2.4181,2.4188,2.4194,2.4257,2.4271,2.4282,0,0,0,0,0,2.3697,2.3774,2.376,2.3774,2.3846,2.3909,2.3918,2.3911,2.3875,2.3912,2.3922,2.3896,2.4024,2.3982,2.3997,2.405,2.4178,2.4186,2.4194,2.4251,2.4268,2.4282,0,0,0,0,0,0,2.3753,2.3777,2.3762,2.3849,2.3877,2.3901,2.3947,2.3929,2.3968,2.396,2.395,2.3958,2.4038,2.4052,2.4004,2.4146,2.4095,2.4107,2.4134,2.415,2.4162,2.4157,2.3952,0,0,0,0,0,2.3776,2.3824,2.3843,2.3919,2.3934,2.3939,2.3966,2.3958,2.3986,2.3998,2.4014,2.4043,2.409,2.4121,2.4165,2.4259,2.4265,2.4303,2.4316,2.4326,2.4335,2.4387,2.4403,2.4224,2.4223,2.4223,0,0,2.3823,2.3842,2.3873,2.3931,2.3951,2.4002,2.3949,2.4005,2.4043,2.4007,2.408,2.4093,2.4125,2.4211,2.425,2.4225,2.4387,2.4336,2.4344,2.4348,2.4396,2.4413,2.4429,2.4229,2.4228,2.4227,0,0,2.3934,2.3954,2.4019,2.4041,2.4074,2.4076,2.4092,2.4119,2.4126,2.4199,2.4174,2.4219,2.43,2.4324,2.4347,2.447,2.4447,2.4485,2.455,2.46,2.4614,2.4626,2.467,2.4686,2.4494,2.4494,2.4495,0,2.3988,2.4064,2.4055,2.4113,2.4139,2.411,2.4176,2.4198,2.4244,2.4263,2.4234,2.4335,2.4355,2.4447,2.4477,2.4496,2.4514,2.448,2.4613,2.4625,2.4637,2.4678,2.4694,2.4499,2.4498,2.4498,2.4497,0,2.4129,2.4182,2.4231,2.4275,2.4307,2.4369,2.437,2.4404,2.4394,2.44,2.4476,2.4499,2.4547,2.4568,2.4559,2.4659,2.4642,2.4614,2.4562,2.4658,2.4697,2.4712,2.4505,2.4503,2.4502,2.4501,0,0,2.4275,2.4315,2.4333,2.4353,2.4388,2.4429,2.449,2.4537,2.4566,2.4599,2.465,2.472,2.4694,2.472,2.4714,2.4758,2.4853,2.4724,2.4724,2.4746,2.4965,2.4985,2.5004,2.4839,2.4842,2.4845,2.4962,0,2.4388,2.4494,2.4489,2.4589,2.4637,2.4611,2.4665,2.4692,2.47,2.4743,2.4752,2.4801,2.4763,2.4779,2.4822,2.4833,2.4897,2.4824,2.4887,2.4889,2.4878,2.5024,2.5046,2.5155,2.4977,2.498,2.4981,0,2.4533,2.4571,2.4676,2.4703,2.4724,2.4772,2.4815,2.4857,2.4888,2.489,2.492,2.4907,2.497,2.4918,2.5004,2.4955,2.4981,2.499,2.4994,2.4999,2.494,2.5032,2.5189,2.5205,2.5005,2.5003,2.5002,0,2.4629,2.4706,2.4779,2.4797,2.4831,2.4866,2.4882,2.491,2.4939,2.4977,2.4996,2.5041,2.5065,2.5101,2.51,2.5063,2.5188,2.5136,2.5192,2.5192,2.5218,2.5216,2.5382,2.5237,2.5237,2.5237,2.5236,0,2.4755,2.482,2.4822,2.4867,2.4939,2.4933,2.5005,2.5018,2.5043,2.509,2.5071,2.5115,2.5112,2.5158,2.5158,2.5229,2.5241,2.5245,2.5244,2.5246,2.5245,2.5261,2.5253,2.5241,2.524,2.5239,2.5238,0,2.4873,2.4878,2.4955,2.4982,2.499,2.5042,2.5065,2.5108,2.5115,2.5174,2.5188,2.5199,2.5251,2.5255,2.5316,2.5316,2.5402,2.5394,2.5392,2.539,2.5445,2.5439,2.5625,2.5649,2.549,2.5492,2.5493,0,2.4952,2.5001,2.5034,2.5064,2.5082,2.513,2.516,2.5157,2.5188,2.5228,2.5266,2.5317,2.5357,2.5442,2.5456,2.5502,2.5494,2.5556,2.5501,2.5501,2.5494,2.549,2.5495,2.5566,2.5568,2.5569,2.5571,0,2.5092,2.5092,2.5135,2.518,2.5216,2.525,2.5283,2.5309,2.531,2.5346,2.54,2.5431,2.5493,2.5544,2.559,2.5607,2.5589,2.5588,2.5603,2.5605,2.5601,2.5603,2.542,2.5584,2.5582,2.5581,2.5581,2.558,2.5192,2.5235,2.5265,2.5314,2.5338,2.5369,2.541,2.5423,2.5467,2.5517,2.5513,2.5572,2.5603,2.5663,2.5684,2.573,2.5709,2.5731,2.5737,2.5742,2.5747,2.5596,2.5739,2.5738,2.5738,2.5738,2.5737,0,2.533,2.5348,2.5394,2.544,2.5479,2.5459,2.5495,2.5528,2.5581,2.5611,2.5651,2.5713,2.5762,2.578,2.5828,2.5862,2.5855,2.5875,2.5871,2.5875,2.5764,2.5745,2.5879,2.5879,2.5879,2.5879,2.5879,2.5879,2.5406,2.5478,2.5482,2.5565,2.5583,2.564,2.5662,2.5691,2.5715,2.5785,2.5825,2.5837,2.5863,2.5913,2.5957,2.5961,2.5979,2.6002,2.6003,2.5898,2.5883,2.587,2.5852,2.6007,2.6007,2.611,2.6111,2.6112]},{"header":{"parameterUnit":"m.s-1","parameterCategory":1,"la1":30.2991,"la2":30.254,"lo1":-89.0895,"lo2":-89.0444,"dy":0.0017,"dx":0.0017,"nx":28,"ny":28,"refTime":"2025-11-16T03:00:00:Z","depth":0,"parameterNumber":3,"parameterNumberName":"V-component_of_WINDS"},"data":[0,0,0,0,0,0,0,0,0,0,0,0,0,0,0,0,0,0,0,0,0,0,0,0,0,0,0,0,0,0,0,0,0,0,0,0,0,0,0,0,0,0,0,0,0,0,0,0,0,0,0,0,0,0,0,0,0,0,0.9028,0.9029,0,0.9096,0.9097,0.9098,0.9112,0.9111,0.9111,0.911,0.9181,0.9183,0.9185,0,0,0,0,0,0,0,0,0,0,0,0,0,0.8909,0.8912,0.9028,0.9029,0.903,0.9096,0.9097,0.9098,0.9112,0.9111,0.911,0.911,0.918,0.9183,0.9185,0,0,0,0,0,0,0,0,0,0,0,0,0,0.8968,0.8912,0.9028,0.9045,0.9047,0.9096,0.9097,0.9098,0.9112,0.9111,0.911,0.9109,0.9179,0.9182,0.9186,0.9223,0,0,0.9197,0.9198,0,0,0,0,0,0,0,0,0.8964,0.8972,0.9041,0.9044,0.9046,0.9095,0.9081,0.914,0.9112,0.9087,0.911,0.9109,0.9153,0.9158,0.9173,0.9227,0.923,0.9197,0.9199,0.9201,0.9202,0,0,0,0,0,0,0,0.896,0.8969,0.9055,0.9042,0.9045,0.9048,0.9056,0.9092,0.9124,0.9089,0.909,0.9098,0.9154,0.9169,0.9175,0.9231,0.9197,0.92,0.9202,0.9204,0.9315,0.9316,0,0,0,0,0,0,0.8953,0.8966,0.9053,0.9057,0.9002,0.9051,0.9059,0.908,0.9123,0.9129,0.9099,0.9099,0.9164,0.917,0.9177,0.9222,0.9201,0.9204,0.9206,0.9314,0.9315,0.9316,0,0,0,0,0,0,0.8951,0.8961,0.905,0.9012,0.9023,0.9054,0.9077,0.9082,0.9097,0.913,0.9136,0.9109,0.9163,0.9172,0.9211,0.9225,0.9205,0.9209,0.9313,0.9315,0.9316,0.9313,0,0,0,0,0,0,0.8947,0.896,0.8975,0.9012,0.9025,0.9083,0.9078,0.9083,0.9103,0.9103,0.9141,0.9147,0.9163,0.9205,0.9214,0.9229,0.9211,0.9312,0.9314,0.9315,0.9312,0.9314,0.9315,0,0,0,0,0,0.8943,0.8972,0.8976,0.8986,0.9045,0.9084,0.9092,0.911,0.9104,0.9119,0.914,0.9146,0.9221,0.9209,0.9219,0.9235,0.9311,0.9313,0.9315,0.9311,0.9313,0.9315,0,0,0,0,0,0,0.8938,0.8978,0.8982,0.9024,0.905,0.9086,0.9106,0.9112,0.9141,0.9141,0.9162,0.917,0.9207,0.9225,0.9211,0.9272,0.9266,0.927,0.9259,0.9262,0.9264,0.9259,0.9214,0,0,0,0,0,0.8941,0.897,0.9003,0.9037,0.905,0.9076,0.9094,0.9105,0.9133,0.9145,0.9168,0.9196,0.9225,0.9245,0.9274,0.9314,0.9321,0.933,0.9332,0.9333,0.9336,0.9356,0.936,0.9322,0.9322,0.9322,0,0,0.8949,0.8975,0.8992,0.9037,0.9059,0.9087,0.9085,0.9116,0.9137,0.915,0.9187,0.9205,0.9237,0.9275,0.9294,0.9292,0.9348,0.9335,0.9336,0.9339,0.9358,0.9362,0.9365,0.9324,0.9323,0.9323,0,0,0.8979,0.9001,0.9031,0.9052,0.9084,0.91,0.9107,0.9142,0.9154,0.9191,0.92,0.9225,0.9277,0.9298,0.9316,0.9349,0.9355,0.9358,0.9368,0.9387,0.939,0.9392,0.9403,0.9406,0.9361,0.9361,0.9361,0,0.8985,0.9028,0.9046,0.9075,0.9094,0.9105,0.9134,0.9154,0.9194,0.9207,0.9203,0.9266,0.9288,0.9331,0.9338,0.9353,0.936,0.9354,0.9388,0.9391,0.9393,0.9404,0.9408,0.9361,0.9361,0.9361,0.9361,0,0.9033,0.9063,0.9083,0.912,0.9141,0.9171,0.9192,0.921,0.9219,0.9235,0.9272,0.9298,0.9332,0.9343,0.9352,0.9386,0.9383,0.9384,0.9378,0.9397,0.9407,0.9411,0.9361,0.9361,0.9361,0.9361,0,0,0.9064,0.9107,0.9114,0.913,0.9165,0.9188,0.9217,0.9249,0.9264,0.929,0.9314,0.9356,0.9355,0.9375,0.9386,0.9403,0.9425,0.9401,0.9402,0.9404,0.9462,0.9461,0.9466,0.9429,0.943,0.943,0.9459,0,0.9096,0.9148,0.9163,0.9206,0.9233,0.9242,0.9266,0.929,0.9305,0.9329,0.9346,0.9374,0.9372,0.9383,0.94,0.9419,0.9437,0.9417,0.9451,0.9452,0.9442,0.9471,0.9471,0.9497,0.9463,0.9464,0.9464,0,0.9142,0.9168,0.9213,0.9242,0.9254,0.9276,0.9305,0.9328,0.9354,0.9363,0.9383,0.9392,0.9421,0.9413,0.9452,0.9438,0.9453,0.9463,0.9465,0.9469,0.9459,0.9475,0.9506,0.9509,0.9471,0.947,0.947,0,0.9158,0.9204,0.9236,0.925,0.9284,0.9299,0.9314,0.9339,0.9356,0.9381,0.9392,0.9421,0.9436,0.9457,0.9473,0.9466,0.951,0.9504,0.9518,0.9518,0.9528,0.9527,0.9561,0.9537,0.9537,0.9537,0.9537,0,0.9193,0.922,0.9243,0.9264,0.9294,0.9309,0.9339,0.9354,0.9375,0.9398,0.9407,0.9428,0.9448,0.9471,0.9483,0.9513,0.952,0.9528,0.9531,0.9527,0.9525,0.9536,0.9535,0.9538,0.9538,0.9538,0.9538,0,0.9216,0.9233,0.9269,0.9297,0.9305,0.9326,0.935,0.9369,0.9383,0.9411,0.9419,0.9441,0.9468,0.9485,0.9521,0.9529,0.956,0.9563,0.9552,0.9553,0.9566,0.9564,0.9608,0.9614,0.9587,0.9587,0.9587,0,0.9237,0.9258,0.9288,0.9303,0.9318,0.9343,0.9359,0.9375,0.9392,0.9421,0.9436,0.9463,0.9486,0.9529,0.9548,0.9574,0.9577,0.959,0.9581,0.9576,0.9576,0.9574,0.9576,0.9592,0.9592,0.9592,0.9593,0,0.9272,0.9278,0.9302,0.9328,0.9348,0.9369,0.9391,0.9403,0.9421,0.944,0.9467,0.9484,0.9519,0.9545,0.9572,0.9587,0.9593,0.9595,0.9599,0.9596,0.9588,0.9591,0.9555,0.9594,0.9594,0.9594,0.9594,0.9594,0.9294,0.9312,0.9335,0.9361,0.9378,0.9397,0.9415,0.9431,0.9454,0.9482,0.949,0.9518,0.954,0.9577,0.9592,0.9613,0.9612,0.9619,0.962,0.9622,0.9621,0.9584,0.9618,0.9618,0.9618,0.9618,0.9618,0,0.9329,0.9343,0.9366,0.9395,0.9414,0.9416,0.9439,0.9455,0.948,0.95,0.9521,0.9551,0.9576,0.9596,0.9621,0.9634,0.9637,0.9641,0.964,0.9643,0.9622,0.9615,0.9638,0.9638,0.9638,0.9638,0.9638,0.9638,0.9349,0.9378,0.9387,0.9425,0.9439,0.9466,0.9479,0.9496,0.9512,0.9544,0.9565,0.9577,0.9596,0.9623,0.9645,0.965,0.9659,0.9661,0.9666,0.9647,0.9644,0.9642,0.9636,0.9663,0.9663,0.9686,0.9686,0.9686]}]]